This is the latest recevied weather packets stored in our database for station/object WX7FGZ-3. If no packets are shown the sender has not sent any weather packets the latest 10 day(s).
| Time | Temp. | Humidity | Pressure | Rain* | Wind** | Luminosity | Snow |
|---|---|---|---|---|---|---|---|
| 1777773430 | 13.89° C | 27% | 1015.1 hPa | 0 mm | - | - | - |
| 1777773129 | 13.89° C | 27% | 1015 hPa | 0 mm | - | - | - |
| 1777772829 | 13.89° C | 27% | 1014.9 hPa | 0 mm | - | - | - |
| 1777772529 | 13.89° C | 27% | 1014.8 hPa | 0 mm | - | - | - |
| 1777772229 | 13.89° C | 28% | 1014.8 hPa | 0 mm | - | - | - |
| 1777771928 | 13.89° C | 28% | 1015 hPa | 0 mm | - | - | - |
| 1777771628 | 13.89° C | 28% | 1015.1 hPa | 0 mm | - | - | - |
| 1777771328 | 14.44° C | 28% | 1015.2 hPa | 0 mm | - | - | - |
| 1777771028 | 14.44° C | 28% | 1015.2 hPa | 0 mm | - | - | - |
| 1777770427 | 15° C | 29% | 1015 hPa | 0 mm | - | - | - |
| 1777770127 | 15° C | 28% | 1015.1 hPa | 0 mm | - | - | - |
| 1777769827 | 15.56° C | 27% | 1015.1 hPa | 0 mm | - | - | - |
| 1777769526 | 15.56° C | 27% | 1015 hPa | 0 mm | - | - | - |
| 1777768925 | 15.56° C | 27% | 1015.2 hPa | 0 mm | - | - | - |
| 1777768724 | 16.67° C | 26% | 1015.3 hPa | 0 mm | - | - | - |
| 1777768625 | 15.56° C | 28% | 1015.1 hPa | 0 mm | - | - | - |
| 1777768325 | 15.56° C | 27% | 1015.2 hPa | 0 mm | - | - | - |
| 1777768025 | 16.11° C | 26% | 1015 hPa | 0 mm | - | - | - |
| 1777767724 | 16.11° C | 26% | 1015.2 hPa | 0 mm | - | - | - |
| 1777767424 | 16.11° C | 26% | 1015.3 hPa | 0 mm | - | - | - |
| 1777767124 | 16.67° C | 27% | 1015.4 hPa | 0 mm | - | - | - |
| 1777766823 | 16.67° C | 26% | 1015.3 hPa | 0 mm | - | - | - |
| 1777766524 | 17.22° C | 26% | 1015.4 hPa | 0 mm | - | - | - |
| 1777765923 | 17.78° C | 25% | 1015.4 hPa | 0 mm | - | - | - |
| 1777765322 | 17.78° C | 27% | 1015.6 hPa | 0 mm | - | - | - |
* Rain latest hour (hover to see other rain measurements)
** Current wind speed in m/s (hover to see current wind gust speed)